Temperature
24 24 23 22 20 21 24 27 29 29 29 29 29 28 27 26 25 23 23 23 23 22 22 22 22 22 21 21 20 20 20 20 20 20 20 20 20 20 20 20 20 20 20 20 20 20 20 20 20
25 24 23 22 22 23 25 28 29 30 30 29 29 28 27 25 24 23 22 23 23 23 22 22 22 22 21 21 20 20 20 20 20 20 20 20 20 20 20 20 20 20 20 20 20 20 20 20 20
25 25 24 22 23 23 25 28 29 30 31 30 28 28 27 25 24 24 23 23 23 23 22 22 22 22 21 21 21 20 20 20 20 20 20 20 20 20 20 20 20 20 20 20 20 20 20 20 20
25 25 24 22 24 25 26 27 28 30 30 29 28 26 26 25 25 25 24 23 23 23 23 22 22 22 21 21 21 20 20 20 20 20 20 20 20 20 20 20 20 20 20 20 20 20 20 20 20
25 25 23 22 24 25 26 27 28 29 30 28 27 26 25 26 26 25 24 23 24 23 23 22 22 22 22 21 21 21 21 20 20 20 20 20 20 20 20 20 20 20 20 20 20 20 20 20 20
26 23 23 23 25 26 26 28 28 29 29 28 26 25 24 25 25 24 24 24 24 24 23 22 22 22 22 22 21 21 21 21 21 21 20 20 20 20 20 20 20 20 20 20 20 20 20 20 20
26 23 24 25 25 26 27 29 28 29 29 29 27 25 24 23 25 24 24 24 24 24 23 23 22 22 22 22 21 21 21 21 21 21 20 20 20 20 20 20 20 20 20 20 20 20 20 19 19
27 23 25 25 26 27 29 30 30 30 30 29 28 25 24 24 24 24 23 24 24 24 24 23 23 23 22 22 22 21 21 21 21 21 20 20 20 20 20 20 20 20 20 20 20 19 19 19 19
28 23 23 26 27 28 30 31 31 31 31 30 29 28 27 25 24 23 23 23 23 23 23 23 23 23 23 22 22 22 21 21 21 21 21 20 20 20 20 20 19 19 19 19 19 19 19 19 19
27 23 25 27 29 29 30 31 31 30 28 28 28 28 26 25 24 24 23 23 23 23 23 23 23 23 23 22 22 22 22 21 21 21 21 21 20 20 20 20 19 19 19 19 19 19 19 19 19
26 25 26 28 30 31 30 31 31 29 27 27 27 27 26 25 25 25 24 24 24 23 23 22 22 22 22 22 22 22 21 21 21 21 21 21 20 20 20 20 20 19 19 19 19 19 19 19 19
27 27 29 30 31 31 31 32 31 30 29 29 30 28 26 26 26 25 25 24 24 23 23 22 22 22 22 22 22 21 21 21 21 21 21 20 20 20 20 20 20 19 19 19 19 19 19 19 19
27 27 29 30 30 31 31 31 31 31 31 29 29 28 27 27 26 26 26 25 24 24 23 23 22 22 21 21 21 21 20 20 20 20 20 20 20 20 20 20 19 19 19 19 19 19 19 19 19
28 29 29 30 30 30 30 30 30 31 30 29 28 27 27 27 27 26 25 25 24 24 24 23 23 22 21 21 21 20 20 20 20 20 20 20 20 20 20 20 19 19 19 19 19 19 19 18 18
28 27 26 27 29 29 29 28 29 31 30 28 27 27 27 27 26 26 26 25 25 24 24 23 23 22 21 21 21 20 20 19 19 19 20 20 20 20 20 20 19 19 19 19 19 19 18 18 18
25 25 25 25 27 28 28 27 28 30 30 28 27 26 26 26 26 26 25 25 24 24 23 23 22 22 21 21 21 20 20 20 19 19 19 19 19 20 20 20 20 19 19 19 19 18 18 18 18
23 23 24 25 27 27 26 27 28 29 29 27 27 26 25 25 24 24 24 24 24 23 23 22 22 21 21 21 21 20 20 20 20 20 20 20 19 19 19 19 19 19 19 19 18 18 18 18 18
23 24 25 26 27 27 26 27 27 29 28 27 26 25 24 23 23 23 23 23 23 23 22 22 21 20 20 20 19 19 19 20 20 20 20 20 19 19 19 19 19 19 18 18 18 18 18 18 18
25 26 26 26 27 26 26 26 26 27 27 25 24 23 22 22 23 23 23 23 23 22 22 21 21 20 20 20 19 19 19 19 19 19 19 19 19 19 19 19 18 18 18 19 18 18 18 18 18
26 25 25 25 26 26 26 25 25 24 25 25 23 22 22 22 23 23 23 23 23 22 22 21 21 21 20 19 19 19 19 19 19 19 19 19 19 19 19 18 18 18 18 18 18 18 17 18 17
26 25 25 25 24 24 24 22 22 23 23 23 22 22 22 23 23 23 23 23 23 22 22 22 21 21 20 20 19 19 19 18 18 18 18 18 18 18 18 18 18 18 18 18 18 18 17 17 17
24 26 26 25 23 21 23 21 21 21 21 21 21 21 22 23 23 23 23 23 23 23 22 22 21 21 20 20 19 19 18 18 18 17 17 17 17 18 18 18 18 18 18 18 18 17 17 17 17
26 26 25 24 23 21 21 21 20 21 20 20 20 21 23 23 23 23 24 23 23 23 22 21 21 20 20 19 19 18 18 17 17 17 17 17 17 17 17 17 17 17 17 17 17 17 17 17 16
26 24 22 20 19 20 22 21 20 19 20 20 21 22 23 24 24 24 24 23 23 22 21 21 20 20 19 18 18 17 17 17 16 16 16 17 17 17 17 16 16 16 16 16 16 16 16 16 16
24 20 19 19 18 19 21 21 20 20 21 21 21 23 24 24 24 24 23 23 22 22 21 21 20 19 18 18 17 17 16 16 16 16 16 16 16 16 16 16 16 16 16 16 16 16 16 16 15
25 20 19 19 19 19 20 21 20 22 22 23 24 24 24 24 24 24 23 23 22 21 21 20 20 19 18 17 17 16 16 15 15 15 15 15 15 15 15 15 15 15 15 15 15 15 15 15 15
25 22 20 18 20 19 20 22 22 22 22 22 23 23 24 24 24 23 23 22 22 21 21 20 20 19 18 17 16 16 15 15 15 15 14 14 14 14 14 14 14 14 14 14 14 14 15 14 14
25 23 18 19 19 19 19 20 20 21 21 21 21 23 24 24 23 23 23 22 22 21 21 20 20 19 18 17 16 16 15 15 14 14 14 14 13 13 13 13 14 14 14 14 14 14 14 14 14
24 23 19 17 17 17 18 18 20 20 20 20 21 22 23 23 23 23 22 22 22 21 21 20 19 18 17 16 16 15 15 14 14 13 13 13 13 13 13 13 13 13 13 14 14 14 14 14 13
23 23 19 19 18 17 17 17 19 19 19 19 20 21 21 21 21 22 22 22 21 21 21 20 19 18 17 16 15 15 14 14 13 13 13 12 12 12 12 12 12 12 13 13 13 13 13 13 13
Wind_Speed
3 5 3 1 2 4 2 1 5 8 6 8 11 11 9 6 3 4 6 19 20 19 20 24 24 23 21 19 18 17 16 15 15 14 14 13 13 12 11 10 10 9 9 9 9 8 8 8 8
2 3 3 1 3 4 3 1 6 6 8 11 11 9 8 6 8 10 8 19 22 19 19 21 25 24 22 20 18 17 16 15 14 14 13 12 12 11 10 9 8 8 7 7 7 7 7 7 6
3 2 2 3 2 1 4 2 2 3 6 7 6 6 5 7 10 8 12 21 20 16 18 22 25 24 22 21 19 17 16 15 14 14 13 12 11 10 10 9 8 7 7 7 6 6 6 6 6
0 3 4 4 3 3 3 6 5 3 5 7 8 6 4 5 8 13 21 21 20 14 16 22 24 23 22 21 20 18 17 16 15 14 13 12 11 11 10 9 9 8 7 7 7 6 7 7 7
3 3 4 2 3 5 4 6 5 2 3 7 10 6 4 5 18 24 22 21 20 14 15 20 23 22 22 21 20 19 18 17 16 15 14 13 12 12 11 11 10 10 9 9 8 8 8 8 8
2 4 3 0 1 3 7 6 4 1 7 10 10 6 4 11 20 21 20 18 19 18 15 18 22 22 21 21 20 19 18 17 16 15 14 13 13 12 12 12 12 11 11 10 10 10 10 11 11
4 3 2 3 4 3 6 6 6 5 8 9 10 7 6 12 17 19 18 17 16 16 14 13 18 19 20 20 20 19 18 17 16 15 15 14 14 13 13 13 14 13 13 13 13 13 13 13 13
5 3 2 2 2 4 6 3 6 8 7 10 9 10 8 12 16 17 15 15 15 14 13 10 13 15 16 17 19 19 18 17 17 16 16 15 15 15 15 15 15 16 16 17 16 16 16 15 15
2 4 2 4 3 4 5 2 3 2 6 5 4 7 12 17 19 18 13 12 12 13 11 11 10 12 14 15 18 18 18 18 18 17 17 16 14 15 15 17 18 19 19 19 19 18 18 17 17
4 4 7 6 4 5 5 3 2 5 9 6 8 8 16 17 19 19 17 17 15 15 13 12 12 11 12 14 14 13 15 15 16 15 15 15 14 15 15 17 21 22 22 21 21 21 19 17 14
5 7 8 8 5 3 4 5 3 7 5 9 15 17 18 16 16 16 17 19 18 17 16 14 13 11 11 7 9 9 11 11 14 15 16 14 13 13 14 13 15 18 20 18 17 18 16 14 12
5 9 8 6 5 5 4 5 4 2 8 13 19 22 20 18 17 17 17 18 16 16 17 15 14 13 11 8 7 8 7 8 10 15 17 13 8 8 9 8 11 11 13 11 12 9 12 13 14
5 6 6 7 8 6 5 5 5 3 5 12 16 18 19 20 18 16 15 17 17 17 17 17 15 15 12 10 7 8 8 9 12 14 16 16 9 10 9 7 9 10 11 9 7 8 9 9 10
6 6 7 8 9 6 4 7 5 6 5 11 15 15 16 18 18 14 12 13 17 18 17 17 17 16 13 11 10 9 8 10 11 12 16 19 14 10 10 10 8 7 10 11 9 9 10 9 9
7 8 11 8 7 5 4 8 7 7 4 9 12 12 11 10 12 14 14 11 13 14 14 16 17 15 14 12 12 9 8 9 7 11 17 18 17 13 11 10 9 8 10 10 8 8 6 7 7
7 6 6 10 6 8 4 6 7 4 8 7 9 9 8 6 8 8 6 5 5 5 6 9 11 11 12 11 9 7 5 5 5 7 11 15 18 17 10 10 10 8 7 6 6 5 5 5 5
6 4 8 11 7 3 6 4 4 5 11 9 9 10 11 11 11 9 10 8 7 6 5 4 3 5 7 8 6 6 5 5 4 5 5 9 14 16 10 10 8 6 5 5 5 4 4 4 5
6 6 5 7 7 7 7 3 3 5 9 9 10 12 15 15 12 12 12 11 10 8 7 6 3 2 3 4 5 5 6 6 5 5 6 8 8 10 7 8 6 5 4 4 4 4 3 4 4
6 4 5 5 7 8 7 5 6 6 5 7 9 12 15 13 10 11 12 11 11 8 8 7 6 3 1 1 3 4 5 5 6 6 7 7 7 6 5 6 5 6 6 6 5 4 5 5 4
3 5 5 5 7 5 5 5 6 7 2 4 10 12 13 12 10 10 10 10 10 8 7 6 5 4 2 1 2 3 4 4 5 5 6 7 6 5 6 7 6 7 6 7 7 6 5 5 5
4 4 4 3 5 5 5 8 8 7 7 8 9 10 10 12 10 9 9 8 8 7 6 5 4 4 3 2 0 2 3 4 4 5 5 6 6 7 7 8 7 8 8 8 8 9 8 7 5
3 2 4 6 7 5 5 4 8 3 7 7 7 6 7 8 8 7 8 7 7 7 7 7 7 5 4 3 2 0 2 3 5 5 5 7 7 7 8 7 8 8 7 8 9 9 7 7 7
1 3 6 6 5 4 4 1 6 2 3 2 4 5 6 7 8 8 8 8 8 7 7 7 6 5 4 3 2 1 2 3 4 5 7 7 7 7 7 7 6 7 7 8 8 7 8 7 7
3 7 9 7 5 2 4 2 6 3 5 5 4 6 7 7 7 8 7 7 6 4 4 4 5 3 3 2 1 1 2 4 6 7 7 7 6 6 7 7 6 6 6 7 8 8 8 7 7
7 7 6 7 6 5 4 0 7 7 7 8 10 9 9 8 7 7 8 7 5 4 3 3 4 2 2 2 1 1 2 3 5 7 7 8 7 6 7 6 6 6 7 7 7 7 7 7 6
1 8 6 2 3 6 5 1 6 5 9 9 9 8 7 8 8 8 8 7 5 5 5 4 3 2 2 2 1 1 2 2 3 5 6 7 7 7 8 7 6 7 7 7 7 6 7 6 6
0 2 8 7 1 2 4 3 5 4 5 7 7 7 8 7 7 7 6 7 7 7 6 5 5 3 2 2 1 1 2 3 4 5 5 6 6 7 8 7 7 6 6 6 6 6 7 6 6
4 3 6 4 1 3 6 4 5 7 7 7 7 7 5 4 5 6 6 7 7 7 6 5 6 5 3 3 2 2 1 2 3 4 6 7 7 7 7 6 5 5 4 4 4 5 5 6 5
2 1 4 4 6 5 4 7 6 6 4 4 3 2 2 3 3 4 6 6 7 6 6 5 5 5 4 4 3 3 1 2 3 4 5 6 6 7 6 6 5 4 3 2 2 3 4 5 4
1 2 6 4 5 6 5 7 8 4 6 7 7 7 6 5 2 2 4 5 6 6 5 5 5 6 6 5 4 4 2 1 1 3 4 5 6 6 6 5 5 5 4 2 2 2 4 5 6
Wind_Direction
247 196 155 114 56 36 343 37 81 66 56 72 80 85 88 79 135 149 131 139 138 146 153 154 154 154 151 148 145 143 141 138 136 135 134 133 132 131 131 130 128 126 125 126 126 126 124 122 121
268 199 146 64 58 26 324 27 90 102 128 111 86 87 85 82 95 110 125 143 142 147 151 154 155 155 153 151 150 149 148 147 146 146 147 147 147 147 146 145 143 142 142 143 144 144 142 143 146
251 197 115 52 38 244 288 313 359 118 132 113 89 63 82 118 117 125 145 143 140 145 150 156 156 156 155 155 155 155 155 156 156 157 159 160 162 163 164 165 166 165 165 167 168 168 167 170 175
264 54 43 48 327 272 257 290 308 341 84 86 100 70 51 115 131 137 141 144 143 145 151 158 157 158 158 158 159 161 162 164 166 168 169 172 175 179 181 181 184 186 187 190 191 193 192 194 201
95 72 51 23 303 310 300 295 306 323 96 93 93 84 34 39 121 134 144 147 147 147 152 159 159 159 160 160 163 166 169 172 174 176 178 181 185 190 192 192 195 199 202 207 209 211 213 214 217
54 71 67 141 255 297 291 280 295 124 117 113 103 103 68 122 130 143 148 151 151 151 155 161 163 163 163 164 167 170 174 177 180 182 185 189 192 195 196 198 202 207 213 218 221 222 224 225 227
136 106 209 212 202 212 257 248 219 188 134 142 130 108 116 145 146 149 149 148 149 153 157 163 166 168 169 170 172 175 179 182 185 189 192 195 198 200 203 205 209 214 219 224 227 229 230 232 233
154 102 325 287 206 216 242 227 205 163 139 130 129 134 158 169 150 149 145 145 149 156 163 166 167 169 172 176 179 181 184 188 192 196 199 202 205 208 211 214 217 220 224 228 231 232 234 234 235
119 79 265 249 252 271 288 315 254 124 98 84 106 145 159 152 141 143 141 143 152 161 169 172 171 172 174 178 186 188 191 196 199 203 206 209 213 216 220 223 223 227 229 231 233 235 237 238 240
117 166 232 231 251 277 311 354 348 79 81 81 83 102 137 145 146 149 154 161 166 171 177 179 180 178 177 186 189 193 198 202 204 208 212 213 215 219 225 231 232 232 233 234 236 237 240 243 243
192 215 246 265 268 296 336 350 25 102 125 158 150 151 153 154 157 159 163 170 175 177 179 182 184 183 184 194 187 196 206 208 213 216 218 219 220 225 231 233 238 238 237 236 238 238 238 238 239
250 268 271 275 313 327 317 333 350 118 185 179 163 160 162 164 171 173 170 174 175 178 184 183 184 186 191 195 192 195 205 209 215 222 222 220 222 226 229 231 232 230 230 227 229 231 233 237 241
266 273 302 319 338 316 317 314 311 299 176 164 163 165 170 173 178 182 176 172 174 181 186 184 185 189 191 194 196 200 208 213 216 219 222 221 221 227 228 230 231 229 224 220 221 226 232 236 241
280 296 312 312 316 310 316 310 320 271 170 159 165 175 183 182 179 179 179 173 176 182 184 184 188 191 189 191 196 202 207 217 221 222 223 221 222 226 229 231 228 224 220 219 220 223 228 233 236
320 335 328 306 294 281 349 315 283 269 146 157 170 179 183 181 177 182 185 178 179 182 180 182 188 191 192 195 197 200 203 210 216 223 227 223 222 224 226 229 228 223 215 212 215 221 220 226 228
355 6 319 291 279 267 169 245 285 356 103 126 146 147 139 144 163 167 146 130 150 164 172 180 187 194 201 204 207 212 212 215 220 227 229 228 226 225 223 226 227 217 206 200 207 211 214 223 225
359 314 286 296 291 241 142 196 300 60 87 91 108 113 109 93 85 89 94 96 102 116 126 132 143 192 222 225 225 230 243 247 247 252 247 241 234 229 225 229 228 215 208 205 216 215 211 229 238
265 279 303 323 338 63 84 86 7 47 97 107 106 103 96 93 92 94 91 85 79 81 91 100 96 152 230 254 263 261 260 260 260 261 264 266 255 243 232 232 225 218 218 221 231 235 230 229 237
240 297 329 341 353 50 40 20 356 4 64 110 114 108 104 99 99 94 93 89 81 74 79 87 89 79 87 254 258 260 260 262 264 262 260 263 264 261 245 237 223 215 216 223 230 237 243 243 225
350 14 4 359 2 44 25 354 348 354 353 143 133 123 117 114 102 97 96 94 96 94 88 86 90 98 111 216 257 258 268 273 268 275 276 270 267 261 255 235 225 225 225 225 223 221 231 236 210
8 71 48 5 358 25 47 351 345 354 48 88 110 120 122 121 118 116 111 111 115 124 136 136 139 131 135 146 321 330 328 321 317 305 295 289 281 270 253 237 225 225 220 223 221 217 221 235 229
325 354 36 14 20 330 42 333 310 3 66 87 107 115 121 127 132 136 135 139 151 169 171 167 170 169 172 156 141 167 298 296 290 293 292 294 286 276 266 252 235 227 223 225 227 221 220 223 232
262 9 11 345 338 343 357 100 288 29 93 148 160 158 163 168 161 162 164 170 182 185 180 181 182 188 192 179 168 176 276 273 286 299 303 303 297 290 281 265 246 234 227 225 224 218 217 215 219
65 28 7 25 56 8 269 190 282 251 198 185 197 202 197 192 186 183 188 189 199 189 171 172 177 203 216 199 192 215 293 306 316 317 315 310 303 297 289 276 256 242 231 226 225 220 216 213 209
66 68 22 3 10 277 283 113 264 259 189 178 190 208 210 206 200 200 201 202 202 184 168 162 167 211 235 218 249 296 311 319 316 313 313 312 307 298 290 280 264 250 235 228 221 214 212 204 200
105 126 144 191 248 285 335 206 267 251 189 194 196 208 217 213 209 206 202 193 183 168 156 156 164 195 217 208 241 331 347 333 317 315 313 310 304 296 291 283 269 257 242 231 219 214 212 205 204
197 207 168 146 271 332 307 293 304 287 224 212 212 218 220 215 205 198 187 176 171 162 166 172 169 177 193 184 165 38 13 358 335 326 323 315 310 307 303 292 278 261 244 231 217 218 216 202 204
164 154 75 89 128 293 301 296 249 256 245 223 213 212 213 185 170 164 168 172 171 171 176 170 165 173 180 164 144 112 55 13 356 350 340 329 323 322 320 316 303 283 259 236 217 213 205 193 193
318 113 127 138 161 166 259 275 261 243 228 200 208 195 156 133 151 178 181 181 179 179 175 169 168 168 168 166 151 133 107 42 22 2 343 334 332 335 337 335 337 331 305 249 201 203 183 172 166
169 160 143 154 237 189 194 272 337 39 52 61 55 42 33 32 10 236 206 198 194 191 188 180 180 179 183 177 168 160 151 111 48 357 339 340 341 341 343 346 355 5 14 34 93 120 122 126 125
Height
1519 1517 1516 1517 1518 1522 1519 1505 1494 1491 1493 1493 1493 1496 1501 1505 1509 1517 1514 1515 1519 1523 1527 1530 1533 1535 1537 1539 1541 1543 1544 1545 1546 1547 1548 1549 1550 1550 1551 1551 1552 1552 1552 1552 1553 1553 1553 1554 1554
1519 1517 1517 1517 1522 1532 1521 1502 1496 1493 1494 1493 1496 1498 1501 1505 1506 1509 1511 1516 1520 1523 1526 1530 1533 1535 1537 1539 1541 1542 1544 1545 1546 1547 1548 1549 1549 1550 1550 1551 1551 1552 1552 1552 1553 1553 1553 1553 1554
1518 1517 1518 1518 1524 1530 1520 1503 1498 1493 1492 1492 1498 1500 1503 1506 1507 1508 1512 1516 1520 1524 1527 1530 1533 1535 1537 1539 1541 1542 1544 1545 1546 1547 1548 1548 1549 1549 1550 1550 1551 1551 1551 1552 1552 1552 1552 1553 1553
1519 1519 1519 1524 1526 1517 1511 1502 1499 1497 1495 1494 1497 1503 1505 1507 1507 1509 1513 1517 1520 1523 1527 1530 1532 1535 1537 1539 1540 1541 1543 1544 1545 1546 1547 1547 1548 1548 1549 1549 1549 1550 1550 1551 1551 1551 1551 1551 1552
1517 1519 1524 1532 1524 1512 1504 1501 1499 1497 1496 1498 1498 1504 1507 1508 1508 1511 1514 1518 1520 1523 1526 1529 1532 1534 1536 1538 1539 1540 1542 1543 1544 1545 1545 1546 1547 1547 1547 1548 1548 1549 1549 1549 1550 1550 1550 1550 1550
1518 1519 1532 1537 1526 1513 1505 1501 1499 1498 1497 1498 1500 1505 1509 1509 1509 1513 1516 1519 1521 1523 1526 1529 1531 1533 1535 1537 1538 1540 1541 1541 1542 1543 1544 1545 1545 1545 1546 1546 1547 1547 1548 1548 1548 1548 1549 1549 1549
1518 1522 1529 1527 1523 1515 1505 1500 1498 1496 1495 1496 1498 1504 1510 1511 1511 1514 1517 1520 1522 1524 1526 1528 1530 1532 1534 1536 1537 1539 1540 1540 1541 1542 1543 1543 1544 1544 1544 1545 1545 1546 1546 1546 1546 1547 1547 1547 1547
1516 1520 1524 1523 1518 1511 1498 1497 1496 1493 1493 1495 1496 1500 1506 1510 1511 1514 1517 1520 1522 1524 1526 1527 1529 1531 1533 1534 1536 1537 1538 1539 1540 1541 1541 1542 1542 1542 1543 1543 1543 1544 1544 1544 1544 1544 1544 1544 1544
1514 1523 1529 1520 1514 1506 1496 1495 1494 1492 1492 1494 1495 1496 1500 1507 1510 1513 1515 1518 1521 1523 1525 1526 1528 1530 1531 1533 1534 1536 1537 1538 1538 1539 1539 1540 1540 1540 1540 1541 1541 1541 1541 1541 1541 1541 1541 1541 1541
1512 1524 1518 1507 1504 1501 1496 1494 1493 1494 1494 1496 1497 1499 1501 1505 1508 1511 1512 1514 1517 1520 1523 1525 1527 1528 1530 1531 1532 1534 1535 1536 1536 1537 1537 1538 1538 1538 1538 1538 1538 1538 1538 1539 1538 1538 1538 1538 1538
1509 1512 1505 1501 1499 1497 1494 1492 1492 1494 1497 1495 1495 1497 1500 1504 1506 1509 1510 1512 1515 1518 1521 1523 1526 1527 1529 1530 1531 1532 1533 1534 1534 1535 1535 1535 1536 1535 1535 1536 1535 1535 1535 1535 1535 1535 1535 1535 1535
1506 1502 1500 1498 1496 1495 1493 1491 1491 1491 1493 1493 1492 1493 1497 1500 1503 1506 1508 1510 1513 1516 1519 1522 1524 1526 1528 1529 1530 1531 1531 1532 1532 1533 1533 1533 1533 1533 1532 1532 1532 1532 1532 1532 1532 1532 1532 1532 1532
1503 1500 1497 1494 1493 1493 1492 1490 1490 1489 1490 1492 1493 1493 1494 1496 1499 1503 1505 1508 1510 1513 1516 1519 1522 1524 1526 1527 1528 1529 1530 1531 1531 1531 1531 1531 1531 1531 1530 1529 1529 1529 1529 1529 1529 1529 1529 1529 1529
1500 1497 1494 1492 1491 1491 1492 1491 1491 1489 1490 1491 1492 1493 1494 1494 1497 1500 1504 1506 1508 1511 1513 1516 1518 1521 1523 1524 1525 1526 1527 1528 1528 1529 1529 1528 1528 1528 1527 1526 1526 1525 1525 1526 1526 1526 1526 1526 1526
1499 1498 1495 1491 1490 1489 1492 1495 1490 1487 1488 1490 1492 1493 1494 1495 1497 1499 1502 1505 1508 1511 1512 1514 1516 1518 1520 1521 1522 1523 1523 1524 1524 1524 1524 1525 1524 1524 1523 1523 1522 1522 1522 1522 1522 1522 1522 1522 1521
1501 1506 1509 1495 1489 1487 1496 1504 1490 1487 1487 1489 1491 1493 1494 1496 1498 1501 1505 1508 1510 1513 1514 1515 1516 1517 1518 1519 1520 1521 1521 1521 1521 1521 1520 1520 1520 1519 1519 1518 1517 1518 1518 1518 1518 1518 1517 1517 1517
1515 1520 1514 1500 1486 1484 1492 1500 1491 1488 1487 1489 1491 1493 1495 1497 1500 1503 1506 1508 1510 1511 1513 1515 1514 1515 1516 1517 1518 1518 1518 1518 1518 1517 1517 1516 1515 1514 1513 1512 1512 1513 1513 1513 1513 1513 1512 1512 1512
1524 1518 1512 1505 1491 1488 1494 1495 1490 1488 1489 1491 1493 1494 1496 1498 1501 1503 1506 1508 1510 1511 1512 1513 1513 1513 1515 1514 1515 1515 1514 1513 1512 1512 1512 1511 1510 1508 1508 1507 1506 1507 1507 1507 1507 1507 1507 1506 1507
1509 1510 1511 1504 1493 1495 1498 1497 1492 1490 1491 1493 1495 1495 1496 1499 1501 1503 1505 1508 1509 1511 1512 1512 1513 1513 1513 1513 1511 1511 1509 1508 1507 1506 1506 1505 1504 1503 1502 1500 1500 1500 1501 1500 1502 1502 1501 1501 1502
1504 1511 1512 1505 1497 1498 1501 1501 1496 1493 1492 1493 1495 1496 1496 1498 1501 1502 1504 1506 1508 1510 1511 1512 1512 1511 1511 1510 1508 1507 1505 1503 1502 1500 1499 1499 1498 1497 1496 1495 1494 1494 1494 1494 1494 1495 1495 1495 1496
1506 1511 1510 1509 1504 1501 1505 1511 1504 1497 1494 1495 1496 1496 1497 1498 1500 1502 1504 1505 1507 1508 1509 1509 1509 1509 1508 1507 1506 1504 1501 1499 1497 1495 1493 1492 1490 1489 1488 1487 1487 1486 1486 1486 1486 1487 1488 1488 1489
1512 1502 1501 1504 1513 1520 1513 1531 1512 1504 1501 1500 1500 1500 1500 1500 1501 1502 1503 1504 1505 1506 1506 1506 1506 1506 1505 1504 1502 1500 1497 1495 1493 1490 1488 1486 1485 1483 1481 1480 1480 1479 1479 1479 1479 1480 1480 1481 1481
1502 1497 1500 1503 1511 1521 1517 1527 1521 1508 1509 1506 1503 1502 1501 1501 1501 1501 1502 1503 1504 1504 1504 1503 1503 1502 1501 1500 1498 1496 1493 1491 1488 1486 1483 1480 1478 1476 1475 1473 1472 1472 1471 1471 1472 1473 1473 1474 1474
1497 1502 1507 1515 1523 1537 1522 1526 1528 1515 1508 1506 1504 1502 1500 1500 1500 1500 1501 1501 1502 1502 1501 1501 1500 1499 1498 1496 1494 1492 1489 1486 1483 1480 1477 1474 1472 1470 1469 1467 1466 1465 1465 1465 1465 1466 1466 1467 1467
1503 1524 1543 1544 1549 1543 1522 1525 1525 1505 1500 1500 1499 1497 1497 1498 1498 1498 1499 1499 1500 1500 1500 1499 1499 1497 1495 1493 1490 1488 1485 1482 1479 1476 1472 1469 1466 1464 1462 1461 1459 1459 1458 1458 1458 1459 1459 1460 1461
1506 1521 1545 1554 1554 1544 1527 1526 1515 1498 1496 1495 1494 1494 1495 1496 1496 1496 1497 1497 1498 1498 1498 1498 1496 1494 1492 1489 1487 1484 1482 1479 1475 1472 1468 1464 1461 1458 1456 1454 1453 1452 1452 1452 1452 1453 1454 1455 1456
1507 1514 1519 1537 1537 1543 1535 1519 1508 1499 1497 1495 1494 1494 1494 1494 1494 1495 1495 1496 1496 1496 1496 1495 1493 1491 1489 1486 1484 1481 1479 1475 1472 1468 1464 1460 1457 1454 1451 1449 1447 1446 1446 1446 1447 1447 1449 1450 1451
1501 1507 1524 1535 1547 1552 1540 1529 1522 1504 1499 1495 1494 1493 1493 1493 1493 1493 1494 1494 1494 1494 1493 1492 1490 1488 1485 1483 1481 1478 1475 1472 1469 1465 1461 1457 1453 1450 1447 1444 1442 1441 1441 1441 1441 1442 1443 1445 1447
1507 1509 1519 1533 1538 1550 1551 1538 1506 1500 1495 1494 1494 1494 1494 1494 1494 1494 1493 1492 1492 1491 1490 1488 1486 1484 1482 1480 1478 1475 1473 1469 1466 1462 1459 1455 1451 1447 1444 1442 1439 1438 1436 1436 1437 1438 1440 1442 1443
1502 1506 1518 1532 1534 1535 1543 1536 1506 1500 1497 1496 1497 1497 1497 1496 1495 1493 1492 1491 1489 1488 1487 1485 1483 1481 1479 1476 1474 1472 1470 1467 1464 1461 1457 1454 1450 1447 1444 1441 1439 1437 1435 1434 1434 1435 1437 1439 1441